Regional Weather Roundup
Issued by NWS Sterling, VA

Home | Current Version | Previous Version | Graphics & Text | Print | Product List | Glossary On
Versions: 1 2 3 4 5 6 7 8 9 10 11 12 13 14 15 16 17 18 19 20 21 22 23 24 25 26 27 28 29 30 31 32 33 34 35 36 37 38 39 40 41 42 43 44 45 46 47 48 49 50
000
ASUS41 KLWX 140410
RWRLWX

REGIONAL WEATHER ROUNDUP
NATIONAL WEATHER SERVICE BALTIMORE MD/WASHINGTON DC
1200 AM EDT SUN SEP 14 2014

Note: "FAIR" indicates few or no clouds below 12,000 feet
with no significant weather and/or obstructions to visibility.
 TC=TEMPERATURE CELSIUS

 * =Non NWS site. Station does not report precipitation (e.g. rain,
    snow, etc.), thunder, or fog.

DCZ001-MDZ009-015-VAZ040>042-051-053>054-140500-
WASHINGTON METRO

CITY           SKY/WX    TMP DP  RH WIND       PRES   REMARKS
WASHINGTON NAT PTCLDY    64  55  72 NW9       30.23S
DULLES         PTCLDY    56  53  90 CALM      30.24S
ANDREWS AFB    CLEAR     61  55  83 NW3       30.22S
QUANTICO       CLEAR     60  56  86 NW9       30.23S
COLLEGE PARK*  CLEAR     57  57 100 CALM      30.22S
LEESBURG*      CLEAR     57  55  94 NW9       30.26S
MANASSAS*      PTCLDY    54  54 100 CALM      30.24R
GAITHERSBURG*  CLEAR     54  52  94 CALM      30.27S

$$

MDZ006>007-011-014-140500-
BALTIMORE METRO

CITY           SKY/WX    TMP DP  RH WIND       PRES   REMARKS
BWI AIRPORT    PTCLDY    57  54  89 NW5       30.22R
MD SCIENCE CTR   N/A     64  53  67 MISG      30.22R
MARTIN STATE   CLEAR     59  57  94 W3        30.23R
ANNAPOLIS      CLEAR     61  56  83 W5        30.21S
FORT MEADE*    CLEAR     54  52  94 CALM      30.24S

$$

MDZ012-015-019>023-140500-
MARYLAND EASTERN SHORE

CITY           SKY/WX    TMP DP  RH WIND       PRES   REMARKS
OCEAN CITY     PTCLDY    62  58  86 NW7       30.16R
SALISBURY      PTCLDY    63  58  83 N7        30.18R
BAY BRIDGE AP*   N/A     64  55  72 NW8       30.20S
CAMBRIDGE*     CLEAR     64  55  72 N6        30.19S
EASTON*        CLEAR     62  62 100 CALM      30.23S

$$

MDZ017>025-140500-
SOUTHERN MARYLAND

CITY           SKY/WX    TMP DP  RH WIND       PRES   REMARKS
PATUXENT RIVER CLEAR     64  56  75 NW13      30.19S
ST INIGOES     PTCLDY    64  55  72 NW5       30.19S
LEONARDTOWN*   PTCLDY    59  54  82 CALM      30.22S

$$

MDZ003>005-140500-
NORTH CENTRAL MARYLAND

CITY           SKY/WX    TMP DP  RH WIND       PRES   REMARKS
FREDERICK*     FOG       54  52  94 E3        30.28R VSB 1/2
HAGERSTOWN APT CLEAR     55  48  77 CALM      30.27R
WESTMINSTER*   CLEAR     55  52  88 N3        30.25R

$$

MDZ501>502-140500-
WESTERN MARYLAND

CITY           SKY/WX    TMP DP  RH WIND       PRES   REMARKS
OAKLAND*       CLEAR     45 N/A N/A N3        30.31S
CUMBERLAND*    CLEAR     54  48  82 N3        30.33S

$$

VAZ025>031-140500-
SHENANDOAH VALLEY

CITY           SKY/WX    TMP DP  RH WIND       PRES   REMARKS
WINCHESTER*    CLEAR     55  50  82 NW3       30.28R
STAUNTON*      CLEAR     51  48  90 CALM      30.29S

$$

WVZ021-048>050-054>055-140500-
EASTERN WEST VIRGINIA PANHANDLE

CITY           SKY/WX    TMP DP  RH WIND       PRES   REMARKS
MARTINSBURG    CLEAR     58  47  66 NW8       30.27R
PETERSBURG*    PTCLDY    56  50  81 CALM      30.31R

$$

VAZ036>039-050-140500-
CENTRAL FOOTHILLS

CITY           SKY/WX    TMP DP  RH WIND       PRES   REMARKS
CHARLOTTESVILL PTCLDY    58  52  80 CALM      30.24S
ORANGE*        CLEAR     54  52  94 CALM      30.26S

$$

VAZ055>057-140500-
NORTH AND CENTRAL PIEDMONT

CITY           SKY/WX    TMP DP  RH WIND       PRES   REMARKS
FREDERICKSBRG* CLEAR     57  57 100 NW3       30.22S
STAFFORD*      CLEAR     54  54 100 CALM      30.27R FOG

$$

NCZ024-NYZ072-PAZ021-071-VAZ022-071-140500-
OTHER REGIONAL OBSERVATIONS

CITY           SKY/WX    TMP DP  RH WIND       PRES   REMARKS
NEW YORK CITY  CLEAR     59  53  80 VRB5      30.19S
PHILADELPHIA   PTCLDY    59  55  87 NW9       30.20R
PITTSBURGH     CLEAR     48  44  86 CALM      30.32R
ROANOKE        CLOUDY    61  51  70 NW5       30.28R
RICHMOND       PTCLDY    63  57  81 N6        30.21S
RALEIGH        CLOUDY    70  64  81 NE7       30.19R

$$

ANZ530>537-140500-
MARINE OBSERVATIONS

STATION/POSITION TIME  TEMP    WIND        PRES
                       AIR SEA DIR/SP/G
                 (UTC) (F)     (DEG/KT/KT) (MB)
THOMAS PT LIGHT  0400   63 75  320/ 10/ 11 1023.7R
BALT KEY BRIDGE  0400   65     280/ 10/ 12 1022.9S
COVE POINT       0400   67     350/ 19/ 22 1022.2F
LEWISETTA        0400   68 75  350/ 11/ 18 1022.2S
SOLOMONS ISLAND  0400      77                N/A
PINEY POINT      0400          360/ 12/ 13   N/A

$$




USA.gov is the U.S. government's official web portal to all federal, state and local government web resources and services.